Weather History for Cody, WY

Change the Weather History Date:

Saturday, February 2, 2013

  Actual Average Record
Temperature  
Mean Temperature 34 °F -  
Max Temperature 46 °F 36 °F 69 °F (1934)
Min Temperature 21 °F 12 °F -31 °F (1989)
Degree Days  
Heating Degree Days 32    
Moisture  
Dew Point 19 °F    
Average Humidity 54    
Maximum Humidity 86    
Minimum Humidity 34    
Precipitation  
Precipitation 0.00 in - - ()
Sea Level Pressure  
Sea Level Pressure 30.22 in    
Wind  
Wind Speed 10 mph (NW)    
Max Wind Speed 17 mph    
Max Gust Speed 31 mph    
Visibility 10 miles    
Events      
Averages and records for this station are not official NWS values.
T = Trace of Precipitation, MM = Missing Value Source: NWS Daily Summary

Daily Weather History Graph

Daily Weather History Graph

Search for Another Location

Airport:

Trip Planner

Search our weather history database for the weather conditions in past years. The results will help you decide how hot, cold, wet, or windy it might be!

Date:

Astronomy

Feb. 02, 2013 Rise Set
Actual Time 7:33 AM MST 5:27 PM MST
Civil Twilight 7:02 AM MST 5:57 PM MST
Nautical Twilight 6:27 AM MST 6:32 PM MST
Astronomical Twilight 5:53 AM MST 7:06 PM MST
Moon No Moon Rise 10:27 AM MST (2/2)
Length of Visible Light 10h 55m
Length of Day
9h 53m
Waning Gibbous, 59% of the Moon is Illuminated
Feb 2
Waning Gibbous
Feb 3
Last Quarter
Feb 10
New
Feb 17
First Quarter
Feb 25
Full

Hourly Weather History & Observations

Time (MST) Temp. Windchill Dew Point Humidity Pressure Visibility Wind Dir Wind Speed Gust Speed Precip Events Conditions
12:15 AM 35.6 °F 27.1 °F 17.6 °F 48% 30.20 in 10.0 mi West 12.7 mph 23.0 mph N/A   Clear
12:35 AM 35.6 °F 27.1 °F 17.6 °F 48% 30.20 in 10.0 mi West 12.7 mph 20.7 mph N/A   Clear
12:55 AM 35.6 °F 29.2 °F 17.6 °F 48% 30.20 in 10.0 mi WNW 8.1 mph 17.3 mph N/A   Clear
1:35 AM 35.6 °F 27.1 °F 17.6 °F 48% 30.19 in 10.0 mi West 12.7 mph 21.9 mph N/A   Clear
1:55 AM 35.6 °F 27.1 °F 17.6 °F 48% 30.20 in 10.0 mi West 12.7 mph 20.7 mph N/A   Clear
2:15 AM 35.6 °F 27.1 °F 17.6 °F 48% 30.21 in 10.0 mi West 12.7 mph 18.4 mph N/A   Clear
2:35 AM 35.6 °F 27.1 °F 15.8 °F 44% 30.21 in 10.0 mi West 12.7 mph 18.4 mph N/A   Clear
2:55 AM 35.6 °F 28.6 °F 15.8 °F 44% 30.21 in 10.0 mi WNW 9.2 mph - N/A   Clear
3:15 AM 35.6 °F 25.9 °F 15.8 °F 44% 30.21 in 10.0 mi West 16.1 mph 20.7 mph N/A   Clear
3:35 AM 35.6 °F 26.6 °F 17.6 °F 48% 30.20 in 10.0 mi West 13.8 mph 19.6 mph N/A   Clear
3:55 AM 35.6 °F 26.6 °F 15.8 °F 44% 30.19 in 10.0 mi West 13.8 mph 24.2 mph N/A   Clear
4:35 AM 35.6 °F 29.2 °F 15.8 °F 44% 30.18 in 10.0 mi WNW 8.1 mph 17.3 mph N/A   Clear
4:55 AM 35.6 °F 26.2 °F 15.8 °F 44% 30.18 in 10.0 mi West 15.0 mph 21.9 mph N/A   Clear
5:15 AM 33.8 °F 26.4 °F 14.0 °F 44% 30.18 in 10.0 mi West 9.2 mph 18.4 mph N/A   Clear
5:35 AM 32.0 °F 27.5 °F 12.2 °F 44% 30.18 in 10.0 mi WNW 4.6 mph - N/A   Clear
5:55 AM 30.2 °F 23.4 °F 12.2 °F 47% 30.17 in 10.0 mi NNW 6.9 mph - N/A   Clear
6:15 AM 28.4 °F 22.2 °F 14.0 °F 55% 30.18 in 10.0 mi NW 5.8 mph - N/A   Clear
6:35 AM 35.6 °F 29.2 °F 17.6 °F 48% 30.18 in 10.0 mi WNW 8.1 mph - N/A   Clear
6:55 AM 35.6 °F 27.5 °F 15.8 °F 44% 30.19 in 10.0 mi NW 11.5 mph 18.4 mph N/A   Clear
7:15 AM 35.6 °F 26.6 °F 17.6 °F 48% 30.19 in 10.0 mi West 13.8 mph 24.2 mph N/A   Clear
7:35 AM 37.4 °F 28.9 °F 15.8 °F 41% 30.19 in 10.0 mi WSW 13.8 mph 31.1 mph N/A   Clear
7:55 AM 37.4 °F 28.9 °F 15.8 °F 41% 30.20 in 10.0 mi West 13.8 mph 21.9 mph N/A   Clear
8:15 AM 37.4 °F 28.2 °F 15.8 °F 41% 30.21 in 10.0 mi West 16.1 mph 20.7 mph N/A   Partly Cloudy
8:35 AM 39.2 °F 30.5 °F 15.8 °F 39% 30.22 in 10.0 mi West 16.1 mph 21.9 mph N/A   Clear
8:55 AM 39.2 °F 31.2 °F 17.6 °F 42% 30.23 in 10.0 mi West 13.8 mph 20.7 mph N/A   Clear
9:15 AM 41.0 °F 34.7 °F 17.6 °F 39% 30.23 in 10.0 mi West 10.4 mph 23.0 mph N/A   Clear
9:35 AM 42.8 °F 34.8 °F 17.6 °F 36% 30.23 in 10.0 mi West 17.3 mph 23.0 mph N/A   Clear
9:55 AM 42.8 °F 35.8 °F 17.6 °F 36% 30.25 in 10.0 mi NNW 13.8 mph 21.9 mph N/A   Clear
10:15 AM 42.8 °F 36.2 °F 17.6 °F 36% 30.27 in 10.0 mi WNW 12.7 mph - N/A   Clear
10:35 AM 42.8 °F 37.0 °F 17.6 °F 36% 30.28 in 10.0 mi NE 10.4 mph - N/A   Clear
10:55 AM 42.8 °F 38.6 °F 21.2 °F 42% 30.29 in 10.0 mi NNW 6.9 mph - N/A   Clear
11:15 AM 42.8 °F 39.3 °F 19.4 °F 39% 30.28 in 10.0 mi ESE 5.8 mph - N/A   Clear
11:35 AM 42.8 °F 37.0 °F 19.4 °F 39% 30.28 in 10.0 mi East 10.4 mph - N/A   Clear
11:55 AM 42.8 °F 38.0 °F 19.4 °F 39% 30.27 in 10.0 mi East 8.1 mph - N/A   Clear
12:15 PM 44.6 °F 40.2 °F 19.4 °F 37% 30.27 in 10.0 mi ENE 8.1 mph - N/A   Clear
12:35 PM 44.6 °F 40.2 °F 21.2 °F 39% 30.26 in 10.0 mi West 8.1 mph 18.4 mph N/A   Clear
12:55 PM 46.4 °F 43.5 °F 19.4 °F 34% 30.26 in 10.0 mi East 5.8 mph - N/A   Clear
1:15 PM 44.6 °F 38.8 °F 21.2 °F 39% 30.25 in 10.0 mi NE 11.5 mph - N/A   Clear
1:35 PM 44.6 °F 38.8 °F 23.0 °F 43% 30.25 in 10.0 mi NE 11.5 mph - N/A   Clear
1:56 PM 42.8 °F 36.6 °F 23.0 °F 46% 30.25 in 10.0 mi NE 11.5 mph - N/A   Clear
2:15 PM 42.8 °F 37.0 °F 23.0 °F 46% 30.24 in 10.0 mi NE 10.4 mph - N/A   Clear
2:35 PM 42.8 °F 37.5 °F 21.2 °F 42% 30.24 in 10.0 mi NNE 9.2 mph - N/A   Clear
2:55 PM 42.8 °F 38.0 °F 21.2 °F 42% 30.24 in 10.0 mi NE 8.1 mph - N/A   Clear
3:15 PM 42.8 °F 37.5 °F 23.0 °F 46% 30.24 in 10.0 mi NNE 9.2 mph - N/A   Clear
3:35 PM 42.8 °F 37.0 °F 23.0 °F 46% 30.24 in 10.0 mi ENE 10.4 mph - N/A   Clear
3:55 PM 39.2 °F 34.2 °F 21.2 °F 49% 30.24 in 10.0 mi NE 6.9 mph - N/A   Clear
4:15 PM 39.2 °F 35.0 °F 21.2 °F 49% 30.23 in 10.0 mi NE 5.8 mph - N/A   Clear
4:35 PM 37.4 °F 31.4 °F 24.8 °F 60% 30.22 in 10.0 mi North 8.1 mph - N/A   Clear
4:55 PM 37.4 °F 32.1 °F 23.0 °F 56% 30.22 in 10.0 mi SW 6.9 mph - N/A   Clear
5:15 PM 35.6 °F 28.0 °F 19.4 °F 52% 30.22 in 10.0 mi NE 10.4 mph - N/A   Clear
5:35 PM 26.6 °F 19.1 °F 21.2 °F 80% 30.23 in 10.0 mi NNE 6.9 mph - N/A   Clear
5:55 PM 24.8 °F 20.5 °F 19.4 °F 80% 30.24 in 10.0 mi NNE 3.5 mph - N/A   Clear
6:15 PM 24.8 °F - 19.4 °F 80% 30.24 in 10.0 mi Calm Calm - N/A   Clear
6:35 PM 26.6 °F 22.6 °F 21.2 °F 80% 30.24 in 10.0 mi South 3.5 mph - N/A   Clear
6:55 PM 24.8 °F 20.5 °F 19.4 °F 80% 30.23 in 10.0 mi South 3.5 mph - N/A   Clear
7:15 PM 24.8 °F 17.9 °F 19.4 °F 80% 30.22 in 10.0 mi ENE 5.8 mph - N/A   Clear
7:35 PM 24.8 °F 19.1 °F 19.4 °F 80% 30.22 in 10.0 mi NE 4.6 mph - N/A   Clear
8:15 PM 24.8 °F 17.9 °F 19.4 °F 80% 30.21 in 10.0 mi SW 5.8 mph - N/A   Clear
8:35 PM 26.6 °F 21.2 °F 19.4 °F 74% 30.21 in 10.0 mi SSW 4.6 mph - N/A   Clear
8:55 PM 24.8 °F 20.5 °F 17.6 °F 74% 30.21 in 10.0 mi North 3.5 mph - N/A   Clear
9:15 PM 21.2 °F - 17.6 °F 86% 30.21 in 10.0 mi Calm Calm - N/A   Clear
9:35 PM 23.0 °F 15.8 °F 19.4 °F 86% 30.21 in 10.0 mi North 5.8 mph - N/A   Clear
9:55 PM 24.8 °F - 21.2 °F 86% 30.21 in 10.0 mi Calm Calm - N/A   Clear
10:15 PM 24.8 °F - 19.4 °F 80% 30.20 in 10.0 mi Calm Calm - N/A   Clear
10:35 PM 21.2 °F - 17.6 °F 86% 30.19 in 10.0 mi Calm Calm - N/A   Clear
10:55 PM 28.4 °F 21.2 °F 21.2 °F 74% 30.19 in 10.0 mi WNW 6.9 mph - N/A   Clear
11:15 PM 32.0 °F 24.8 °F 21.2 °F 64% 30.18 in 10.0 mi WNW 8.1 mph - N/A   Clear
11:35 PM 26.6 °F 21.2 °F 17.6 °F 69% 30.18 in 10.0 mi North 4.6 mph - N/A   Clear
11:55 PM 24.8 °F 20.5 °F 19.4 °F 80% 30.17 in 10.0 mi NNW 3.5 mph - N/A   Clear